Weather History for Wayne, NE

Change the Weather History Date:

Monday, March 25, 2013

  Actual Average (KOFK) Record (KOFK)
Temperature  
Mean Temperature 26 °F 41 °F  
Max Temperature 29 °F 53 °F 83 °F (1910)
Min Temperature 23 °F 29 °F -1 °F (1894)
Degree Days  
Heating Degree Days 39 24  
Month to date heating degree days 720  
Since 1 July heating degree days 5813  
Cooling Degree Days 0 0  
Month to date cooling degree days 0  
Year to date cooling degree days 0  
Moisture  
Dew Point 20 °F    
Average Humidity 80    
Maximum Humidity 91    
Minimum Humidity 67    
Precipitation  
Precipitation 0.00 in 0.07 in 1.43 in (1995)
Month to date precipitation 1.32  
Year to date precipitation 2.67  
Snow  
Snow 0.00 in 0.20 in - ()
Month to date snowfall 4.2  
Since 1 July snowfall 27.0  
Snow Depth -    
Sea Level Pressure  
Sea Level Pressure 30.23 in    
Wind  
Wind Speed 17 mph (NNW)    
Max Wind Speed 23 mph    
Max Gust Speed 30 mph    
Visibility 8 miles    
Events Snow    
T = Trace of Precipitation, MM = Missing Value Source: NWS Daily Summary

Daily Weather History Graph

Daily Weather History Graph

Search for Another Location

Airport:

Trip Planner

Search our weather history database for the weather conditions in past years. The results will help you decide how hot, cold, wet, or windy it might be!

Date:

Astronomy

Mar. 25, 2013 Rise Set
Actual Time 7:22 AM CDT 7:46 PM CDT
Civil Twilight 6:54 AM CDT 8:14 PM CDT
Nautical Twilight 6:21 AM CDT 8:47 PM CDT
Astronomical Twilight 5:47 AM CDT 9:21 PM CDT
Moon 6:18 PM CDT (3/25) 6:07 AM CDT (3/25)
Length of Visible Light 13h 20m
Length of Day
12h 24m
Waxing Gibbous, 96% of the Moon is Illuminated
Mar 25
Waxing Gibbous
Mar 27
Full
Apr 2
Last Quarter
Apr 10
New
Apr 18
First Quarter

Hourly Weather History & Observations

Time (CDT) Temp. Windchill Dew Point Humidity Pressure Visibility Wind Dir Wind Speed Gust Speed Precip Events Conditions
12:15 AM 26.2 °F 13.4 °F 23.5 °F 90% 30.12 in 5.0 mi North 17.3 mph 24.2 mph N/A   Overcast
12:35 AM 25.7 °F 11.9 °F 23.0 °F 89% 30.12 in 4.0 mi North 19.6 mph 26.5 mph N/A Snow Light Snow
12:55 AM 25.3 °F 13.1 °F 22.8 °F 90% 30.13 in 3.0 mi North 15.0 mph 23.0 mph N/A Snow Light Snow
1:15 AM 25.2 °F 12.9 °F 22.8 °F 91% 30.13 in 4.0 mi North 15.0 mph 21.9 mph N/A Snow Light Snow
1:35 AM 24.8 °F 11.9 °F 22.3 °F 90% 30.13 in 4.0 mi North 16.1 mph - N/A   Overcast
1:55 AM 24.8 °F 12.4 °F 22.1 °F 89% 30.14 in 7.0 mi NNW 15.0 mph 23.0 mph N/A   Overcast
2:15 AM 24.8 °F 11.9 °F 22.1 °F 89% 30.14 in 10.0 mi NNW 16.1 mph 21.9 mph N/A   Overcast
2:35 AM 24.8 °F 12.4 °F 21.7 °F 88% 30.14 in 10.0 mi NNW 15.0 mph - N/A   Overcast
2:55 AM 24.8 °F 11.9 °F 21.6 °F 87% 30.14 in 10.0 mi NNW 16.1 mph - N/A   Overcast
3:15 AM 24.4 °F 11.0 °F 20.7 °F 86% 30.14 in 10.0 mi NNW 17.3 mph 21.9 mph N/A   Overcast
3:35 AM 24.6 °F 11.7 °F 19.9 °F 82% 30.14 in 10.0 mi NNW 16.1 mph 24.2 mph N/A   Overcast
3:55 AM 24.6 °F 10.5 °F 19.8 °F 82% 30.14 in 10.0 mi NNW 19.6 mph 24.2 mph N/A   Overcast
4:15 AM 24.3 °F 11.7 °F 19.2 °F 81% 30.14 in 10.0 mi NNW 15.0 mph 26.5 mph N/A   Overcast
4:35 AM 23.9 °F 10.8 °F 19.9 °F 85% 30.14 in 10.0 mi NNW 16.1 mph 23.0 mph N/A   Overcast
4:55 AM 23.7 °F 10.5 °F 20.3 °F 87% 30.15 in 7.0 mi NNW 16.1 mph 23.0 mph N/A   Overcast
5:15 AM 23.7 °F 10.1 °F 20.3 °F 87% 30.15 in 5.0 mi NNW 17.3 mph 23.0 mph N/A Snow Light Snow
5:35 AM 23.7 °F 10.1 °F 20.7 °F 88% 30.15 in 4.0 mi NNW 17.3 mph 26.5 mph N/A Snow Light Snow
5:55 AM 23.5 °F 9.9 °F 20.3 °F 87% 30.15 in 5.0 mi NW 17.3 mph 25.3 mph N/A Snow Light Snow
6:15 AM 23.5 °F 9.4 °F 20.3 °F 87% 30.16 in 5.0 mi NNW 18.4 mph 25.3 mph N/A Snow Light Snow
6:35 AM 23.7 °F 9.7 °F 20.7 °F 88% 30.16 in 5.0 mi NNW 18.4 mph 24.2 mph N/A Snow Light Snow
6:55 AM 23.7 °F 10.1 °F 20.7 °F 88% 30.17 in 5.0 mi NNW 17.3 mph 26.5 mph N/A Snow Light Snow
7:15 AM 23.5 °F 9.4 °F 20.3 °F 87% 30.17 in 4.0 mi NNW 18.4 mph 26.5 mph N/A   Overcast
7:35 AM 23.4 °F 8.8 °F 20.1 °F 87% 30.18 in 5.0 mi NNW 19.6 mph 25.3 mph N/A   Overcast
7:55 AM 23.5 °F 9.0 °F 20.3 °F 87% 30.18 in 5.0 mi NNW 19.6 mph 27.6 mph N/A   Overcast
8:15 AM 23.4 °F 8.1 °F 19.9 °F 87% 30.19 in 7.0 mi NNW 21.9 mph 27.6 mph N/A   Overcast
8:35 AM 23.0 °F 8.7 °F 19.4 °F 86% 30.20 in 7.0 mi NNW 18.4 mph 27.6 mph N/A   Mostly Cloudy
8:55 AM 23.4 °F 9.2 °F 19.4 °F 85% 30.21 in 5.0 mi NNW 18.4 mph 29.9 mph N/A   Overcast
9:15 AM 23.9 °F 9.9 °F 20.1 °F 85% 30.21 in 5.0 mi NNW 18.4 mph 27.6 mph N/A Snow Light Snow
9:35 AM 23.9 °F 9.1 °F 20.1 °F 85% 30.22 in 5.0 mi NNW 20.7 mph 28.8 mph N/A Snow Light Snow
9:55 AM 23.7 °F 9.7 °F 20.1 °F 86% 30.22 in 3.0 mi NNW 18.4 mph 29.9 mph N/A Snow Light Snow
10:15 AM 23.7 °F 8.5 °F 19.9 °F 85% 30.23 in 2.0 mi NNW 21.9 mph 28.8 mph N/A Snow Light Snow
10:35 AM 23.9 °F 8.8 °F 19.9 °F 85% 30.24 in 4.0 mi NNW 21.9 mph 27.6 mph N/A Snow Light Snow
10:55 AM 24.8 °F 10.3 °F 20.3 °F 83% 30.24 in 10.0 mi NNW 20.7 mph 27.6 mph N/A Snow Light Snow
11:15 AM 25.3 °F 10.3 °F 20.1 °F 81% 30.24 in 10.0 mi NNW 23.0 mph 28.8 mph N/A   Overcast
11:35 AM 26.1 °F 12.3 °F 20.5 °F 79% 30.25 in 10.0 mi NNW 19.6 mph 26.5 mph N/A   Overcast
11:55 AM 27.1 °F 13.8 °F 21.4 °F 79% 30.26 in 10.0 mi NNW 19.6 mph 24.2 mph N/A   Overcast
12:15 PM 27.5 °F 13.9 °F 21.2 °F 77% 30.26 in 10.0 mi NNW 20.7 mph 25.3 mph N/A   Mostly Cloudy
12:35 PM 28.2 °F 15.5 °F 21.9 °F 77% 30.26 in 10.0 mi NNW 18.4 mph 25.3 mph N/A   Mostly Cloudy
12:55 PM 28.0 °F 15.7 °F 21.7 °F 77% 30.26 in 10.0 mi NNW 17.3 mph 21.9 mph N/A   Overcast
1:15 PM 28.4 °F 15.4 °F 22.3 °F 78% 30.26 in 10.0 mi NNW 19.6 mph 23.0 mph N/A   Overcast
1:35 PM 28.8 °F 16.6 °F 21.4 °F 74% 30.26 in 10.0 mi NNW 17.3 mph - N/A Snow Light Snow
1:55 PM 29.3 °F 17.3 °F 21.4 °F 72% 30.26 in 10.0 mi NNW 17.3 mph 23.0 mph N/A   Overcast
2:15 PM 29.7 °F 17.4 °F 22.1 °F 73% 30.26 in 10.0 mi NNW 18.4 mph 21.9 mph N/A Snow Light Snow
2:35 PM 29.3 °F 17.0 °F 21.0 °F 71% 30.26 in 10.0 mi North 18.4 mph 23.0 mph N/A Snow Light Snow
2:55 PM 29.1 °F 17.5 °F 20.8 °F 71% 30.26 in 10.0 mi NNW 16.1 mph - N/A Snow Light Snow
3:15 PM 29.1 °F 16.4 °F 20.3 °F 70% 30.26 in 10.0 mi NNW 19.6 mph - N/A   Overcast
3:35 PM 29.3 °F 17.3 °F 20.3 °F 69% 30.26 in 10.0 mi NNW 17.3 mph 21.9 mph N/A Snow Light Snow
3:55 PM 29.3 °F 17.0 °F 19.8 °F 68% 30.26 in 10.0 mi NNW 18.4 mph 24.2 mph N/A   Overcast
4:15 PM 29.1 °F 17.1 °F 19.8 °F 68% 30.26 in 10.0 mi NNW 17.3 mph 21.9 mph N/A   Overcast
4:35 PM 28.9 °F 16.9 °F 19.9 °F 69% 30.27 in 10.0 mi NNW 17.3 mph 23.0 mph N/A Snow Light Snow
4:55 PM 28.9 °F 16.5 °F 20.1 °F 70% 30.27 in 10.0 mi NNW 18.4 mph 24.2 mph N/A Snow Light Snow
5:15 PM 28.4 °F 17.0 °F 20.8 °F 73% 30.27 in 10.0 mi NNW 15.0 mph 24.2 mph N/A   Overcast
5:35 PM 28.4 °F 17.0 °F 20.3 °F 72% 30.27 in 10.0 mi NNW 15.0 mph 20.7 mph N/A Snow Light Snow
5:55 PM 28.0 °F 16.1 °F 20.3 °F 73% 30.28 in 7.0 mi NNW 16.1 mph - N/A Snow Light Snow
6:15 PM 27.7 °F 15.2 °F 19.2 °F 71% 30.28 in 10.0 mi NNW 17.3 mph - N/A   Overcast
6:35 PM 27.7 °F 15.2 °F 19.8 °F 72% 30.29 in 10.0 mi NNW 17.3 mph 23.0 mph N/A   Overcast
6:55 PM 27.5 °F 18.0 °F 19.2 °F 71% 30.29 in 10.0 mi NNW 10.4 mph 18.4 mph N/A   Overcast
7:15 PM 28.0 °F 17.0 °F 19.0 °F 69% 30.30 in 10.0 mi North 13.8 mph - N/A   Overcast
7:35 PM 27.5 °F 19.3 °F 19.0 °F 71% 30.31 in 10.0 mi NNW 8.1 mph - N/A   Overcast
7:55 PM 27.5 °F 16.8 °F 18.0 °F 67% 30.31 in 10.0 mi NNW 12.7 mph - N/A   Overcast
8:15 PM 27.1 °F 17.5 °F 19.0 °F 72% 30.31 in 10.0 mi North 10.4 mph - N/A   Overcast
8:35 PM 26.8 °F 16.5 °F 19.4 °F 74% 30.31 in 10.0 mi North 11.5 mph - N/A   Overcast
8:55 PM 26.6 °F 18.2 °F 20.3 °F 77% 30.31 in 10.0 mi NNW 8.1 mph - N/A   Overcast
9:15 PM 26.6 °F 15.7 °F 19.6 °F 75% 30.32 in 10.0 mi NNW 12.7 mph - N/A   Overcast
9:35 PM 26.2 °F 16.4 °F 19.9 °F 77% 30.32 in 10.0 mi NNW 10.4 mph - N/A   Overcast
9:55 PM 26.1 °F 16.2 °F 19.6 °F 76% 30.32 in 10.0 mi NNW 10.4 mph - N/A   Overcast
10:15 PM 25.7 °F 16.4 °F 20.1 °F 79% 30.32 in 10.0 mi NNW 9.2 mph - N/A   Overcast
10:35 PM 25.7 °F 17.1 °F 20.3 °F 80% 30.33 in 10.0 mi NNW 8.1 mph - N/A   Overcast
10:55 PM 25.7 °F 18.0 °F 20.3 °F 80% 30.33 in 10.0 mi NNW 6.9 mph - N/A   Overcast
11:15 PM 25.7 °F 17.1 °F 20.8 °F 82% 30.33 in 10.0 mi NNW 8.1 mph - N/A   Overcast
11:35 PM 25.7 °F 17.1 °F 20.5 °F 81% 30.33 in 10.0 mi NNW 8.1 mph - N/A   Overcast
11:55 PM 25.7 °F 16.4 °F 17.4 °F 71% 30.34 in 10.0 mi North 9.2 mph - N/A   Overcast